Weather History for Denver, CO

Change the Weather History Date:

Saturday, January 19, 2013

  Actual Average Record
Temperature  
Mean Temperature 41 °F 31 °F  
Max Temperature 57 °F 44 °F 68 °F (1986)
Min Temperature 25 °F 17 °F -20 °F (1883)
Degree Days  
Heating Degree Days 24 34  
Month to date heating degree days 736 651  
Since 1 July heating degree days 2969 3119  
Cooling Degree Days 0 0  
Month to date cooling degree days 0 0  
Year to date cooling degree days 0 0  
Moisture  
Dew Point 6 °F    
Average Humidity 36    
Maximum Humidity 60    
Minimum Humidity 11    
Precipitation  
Precipitation 0.00 in 0.01 in 0.63 in (1990)
Month to date precipitation 0.08 0.25  
Year to date precipitation 0.08 0.25  
Snow  
Snow 0.00 in - - ()
Month to date snowfall 1.4  
Since 1 July snowfall 13.8  
Snow Depth 0.00 in    
Sea Level Pressure  
Sea Level Pressure 30.11 in    
Wind  
Wind Speed 9 mph (SSW)    
Max Wind Speed 17 mph    
Max Gust Speed 23 mph    
Visibility 10 miles    
Events      
T = Trace of Precipitation, MM = Missing Value Source: NWS Daily Summary

Daily Weather History Graph

Daily Weather History Graph

Search for Another Location

Airport:

Trip Planner

Search our weather history database for the weather conditions in past years. The results will help you decide how hot, cold, wet, or windy it might be!

Date:

Astronomy

Jan. 19, 2013 Rise Set
Actual Time 7:16 AM MST 5:03 PM MST
Civil Twilight 6:46 AM MST 5:32 PM MST
Nautical Twilight 6:13 AM MST 6:05 PM MST
Astronomical Twilight 5:41 AM MST 6:37 PM MST
Moon 11:30 AM MST (1/19) 12:53 AM MST (1/19)
Length of Visible Light 10h 45m
Length of Day
9h 46m
First Quarter, 58% of the Moon is Illuminated
Jan 19
First Quarter
Jan 26
Full
Feb 3
Last Quarter
Feb 10
New
Feb 17
First Quarter

Hourly Weather History & Observations

Time (MST) Temp. Windchill Dew Point Humidity Pressure Visibility Wind Dir Wind Speed Gust Speed Precip Events Conditions
12:53 AM 37.9 °F 30.9 °F 5.0 °F 25% 29.99 in 10.0 mi SW 10.4 mph 17.3 mph N/A   Mostly Cloudy
1:53 AM 43.0 °F 35.7 °F 1.9 °F 18% 29.99 in 10.0 mi WNW 15.0 mph - N/A   Mostly Cloudy
2:53 AM 39.0 °F 32.8 °F 3.9 °F 23% 30.00 in 10.0 mi WSW 9.2 mph - N/A   Mostly Cloudy
3:53 AM 36.0 °F 28.0 °F 3.9 °F 26% 30.03 in 10.0 mi WSW 11.5 mph - N/A   Partly Cloudy
4:53 AM 35.1 °F 28.6 °F 3.9 °F 27% 30.07 in 10.0 mi WSW 8.1 mph - N/A   Clear
5:53 AM 39.0 °F 36.8 °F 1.0 °F 20% 30.11 in 10.0 mi NW 3.5 mph - N/A   Clear
6:53 AM 36.0 °F 33.3 °F 1.9 °F 24% 30.17 in 10.0 mi SSW 3.5 mph - N/A   Clear
7:53 AM 35.1 °F 29.3 °F 6.1 °F 30% 30.20 in 10.0 mi SSW 6.9 mph - N/A   Clear
8:53 AM 37.9 °F 34.4 °F 14.0 °F 38% 30.22 in 10.0 mi South 4.6 mph - N/A   Clear
9:53 AM 46.0 °F 41.4 °F 14.0 °F 28% 30.22 in 10.0 mi SE 9.2 mph - N/A   Clear
10:53 AM 50.0 °F - 8.1 °F 18% 30.19 in 10.0 mi SSE 10.4 mph - N/A   Clear
11:53 AM 52.0 °F - 6.1 °F 16% 30.15 in 10.0 mi SSE 10.4 mph - N/A   Clear
12:53 PM 54.0 °F - 7.0 °F 15% 30.11 in 10.0 mi SSE 12.7 mph - N/A   Partly Cloudy
1:53 PM 55.9 °F - 6.1 °F 14% 30.06 in 10.0 mi SSE 10.4 mph - N/A   Partly Cloudy
2:53 PM 55.9 °F - 6.1 °F 14% 30.06 in 10.0 mi SE 9.2 mph - N/A   Partly Cloudy
3:53 PM 55.0 °F - 9.0 °F 16% 30.08 in 10.0 mi SE 6.9 mph - N/A   Scattered Clouds
4:53 PM 48.0 °F - 12.9 °F 24% 30.12 in 10.0 mi SE 6.9 mph - N/A   Scattered Clouds
5:53 PM 48.9 °F - -2.0 °F 12% 30.11 in 10.0 mi WNW 9.2 mph - N/A   Scattered Clouds
6:53 PM 48.0 °F - -4.0 °F 11% 30.12 in 10.0 mi WNW 15.0 mph - N/A   Scattered Clouds
7:53 PM 42.1 °F 37.7 °F -2.0 °F 16% 30.16 in 10.0 mi West 6.9 mph - N/A   Scattered Clouds
8:53 PM 37.0 °F 32.4 °F 8.1 °F 30% 30.16 in 10.0 mi South 5.8 mph - N/A   Scattered Clouds
9:53 PM 34.0 °F 26.6 °F 10.0 °F 37% 30.14 in 10.0 mi WSW 9.2 mph - N/A   Scattered Clouds
10:53 PM 25.0 °F 19.3 °F 12.9 °F 60% 30.14 in 10.0 mi ESE 4.6 mph - N/A   Scattered Clouds
11:53 PM 27.0 °F 19.5 °F 12.0 °F 53% 30.12 in 10.0 mi SSW 6.9 mph - N/A   Scattered Clouds